| time (UTC) | temp C | wind direction | speed KPH | gust KPH | rain 1hr cm | rain 24hr cm | rain mn cm | humidity % | barometer mb |
| 20260507214004 | 10 | 72 | 0.0 | 3.2 | 0.00 | 0.00 | 7.16 | 71 | 1015.5 |
| 20260507213504 | 10 | 56 | 0.0 | 3.2 | 0.00 | 0.00 | 7.16 | 71 | 1015.6 |
| 20260507213004 | 10 | 9 | 0.0 | 1.6 | 0.00 | 0.00 | 7.16 | 71 | 1015.4 |
| 20260507212504 | 10 | 344 | 0.0 | 1.6 | 0.00 | 0.00 | 7.16 | 71 | 1015.5 |
| 20260507212217 | 10 | 319 | 0.0 | 1.6 | 0.00 | 0.00 | 7.16 | 71 | 1015.5 |
| 20260507211504 | 10 | 45 | 0.0 | 1.6 | 0.00 | 0.00 | 7.16 | 70 | 1015.5 |
| 20260507211004 | 10 | 45 | 0.0 | 1.6 | 0.00 | 0.00 | 7.16 | 70 | 1015.5 |
| 20260507210504 | 10 | 45 | 0.0 | 1.6 | 0.00 | 0.00 | 7.16 | 70 | 1015.5 |
| 20260507210005 | 10 | 0 | 0.0 | 0.0 | 0.00 | 0.00 | 7.16 | 70 | 1015.5 |
| 20260507205504 | 10 | 45 | 0.0 | 1.6 | 0.00 | 0.00 | 7.16 | 70 | 1015.5 |
| 20260507205004 | 10 | 26 | 0.0 | 3.2 | 0.00 | 0.00 | 7.16 | 70 | 1015.6 |
| 20260507204504 | 10 | 14 | 0.0 | 3.2 | 0.00 | 0.00 | 7.16 | 70 | 1015.2 |
| 20260507204004 | 10 | 7 | 0.0 | 3.2 | 0.00 | 0.00 | 7.16 | 70 | 1015.2 |
| 20260507203504 | 10 | 360 | 0.0 | 1.6 | 0.00 | 0.00 | 7.16 | 70 | 1015.3 |
| 20260507203217 | 10 | 360 | 0.0 | 1.6 | 0.00 | 0.00 | 7.16 | 70 | 1015.3 |
| 20260507202504 | 10 | 350 | 0.0 | 3.2 | 0.00 | 0.00 | 7.16 | 71 | 1015.1 |
| 20260507202004 | 10 | 347 | 1.6 | 3.2 | 0.00 | 0.00 | 7.16 | 71 | 1015.1 |
| 20260507201716 | 10 | 344 | 1.6 | 3.2 | 0.00 | 0.00 | 7.16 | 71 | 1015.2 |
| 20260507201004 | 10 | 0 | 0.0 | 0.0 | 0.00 | 0.00 | 7.16 | 72 | 1015.0 |
| 20260507200504 | 10 | 360 | 0.0 | 1.6 | 0.00 | 0.00 | 7.16 | 72 | 1015.0 |
| 20260507200004 | 10 | 347 | 0.0 | 3.2 | 0.00 | 0.00 | 7.16 | 72 | 1015.0 |
| 20260507195504 | 10 | 336 | 0.0 | 3.2 | 0.00 | 0.00 | 7.16 | 72 | 1015.0 |
| 20260507195004 | 10 | 346 | 0.0 | 3.2 | 0.00 | 0.00 | 7.16 | 72 | 1014.8 |
| 20260507194504 | 10 | 351 | 0.0 | 3.2 | 0.00 | 0.00 | 7.16 | 72 | 1014.7 |
| 20260507194004 | 10 | 347 | 1.6 | 3.2 | 0.00 | 0.00 | 7.16 | 72 | 1014.7 |
| 20260507193504 | 10 | 359 | 1.6 | 3.2 | 0.00 | 0.00 | 7.16 | 72 | 1014.6 |
| 20260507193004 | 10 | 353 | 0.0 | 6.4 | 0.00 | 0.00 | 7.16 | 72 | 1014.5 |
| 20260507192503 | 10 | 345 | 1.6 | 6.4 | 0.00 | 0.00 | 7.16 | 73 | 1014.5 |
| 20260507192003 | 10 | 325 | 3.2 | 4.8 | 0.00 | 0.00 | 7.16 | 73 | 1014.6 |
| 20260507191503 | 10 | 319 | 0.0 | 4.8 | 0.00 | 0.00 | 7.16 | 73 | 1014.4 |
| 20260507191004 | 10 | 317 | 1.6 | 3.2 | 0.00 | 0.00 | 7.16 | 72 | 1014.4 |
| 20260507190717 | 10 | 328 | 3.2 | 3.2 | 0.00 | 0.00 | 7.16 | 71 | 1014.3 |
| 20260507190005 | 10 | 3 | 0.0 | 3.2 | 0.00 | 0.00 | 7.16 | 71 | 1014.3 |
| 20260507185504 | 10 | 342 | 1.6 | 3.2 | 0.00 | 0.00 | 7.16 | 71 | 1014.4 |
| 20260507185003 | 10 | 330 | 0.0 | 3.2 | 0.00 | 0.00 | 7.16 | 71 | 1014.3 |
| 20260507184714 | 10 | 331 | 3.2 | 3.2 | 0.00 | 0.00 | 7.16 | 71 | 1014.4 |
| 20260507184003 | 10 | 327 | 3.2 | 3.2 | 0.00 | 0.00 | 7.16 | 70 | 1014.3 |
| 20260507183503 | 10 | 329 | 1.6 | 3.2 | 0.00 | 0.00 | 7.16 | 69 | 1014.3 |
| 20260507183003 | 10 | 352 | 0.0 | 3.2 | 0.00 | 0.00 | 7.16 | 67 | 1014.1 |
| 20260507182504 | 10 | 343 | 0.0 | 4.8 | 0.00 | 0.00 | 7.16 | 68 | 1014.2 |
| 20260507182214 | 10 | 340 | 0.0 | 4.8 | 0.00 | 0.00 | 7.16 | 69 | 1014.0 |
| 20260507181504 | 11 | 339 | 0.0 | 3.2 | 0.00 | 0.00 | 7.16 | 66 | 1013.9 |
| 20260507181215 | 11 | 328 | 0.0 | 3.2 | 0.00 | 0.00 | 7.16 | 66 | 1013.9 |
| 20260507180713 | 11 | 320 | 3.2 | 3.2 | 0.00 | 0.00 | 7.16 | 66 | 1013.8 |
| 20260507180003 | 11 | 329 | 3.2 | 3.2 | 0.00 | 0.00 | 7.16 | 66 | 1013.9 |
| 20260507175504 | 12 | 324 | 3.2 | 3.2 | 0.00 | 0.00 | 7.16 | 63 | 1014.0 |
| 20260507175004 | 12 | 325 | 1.6 | 3.2 | 0.00 | 0.00 | 7.16 | 56 | 1013.7 |
| 20260507174504 | 12 | 4 | 1.6 | 3.2 | 0.00 | 0.00 | 7.16 | 55 | 1013.6 |
| 20260507174004 | 12 | 315 | 0.0 | 1.6 | 0.00 | 0.00 | 7.16 | 53 | 1013.6 |
| 20260507173504 | 13 | 336 | 0.0 | 3.2 | 0.00 | 0.00 | 7.16 | 52 | 1013.5 |
| 20260507173214 | 13 | 92 | 0.0 | 3.2 | 0.00 | 0.00 | 7.16 | 51 | 1013.6 |
| 20260507172504 | 14 | 149 | 1.6 | 6.4 | 0.00 | 0.00 | 7.16 | 50 | 1013.6 |
| 20260507172004 | 15 | 163 | 3.2 | 6.4 | 0.00 | 0.00 | 7.16 | 47 | 1013.5 |
| 20260507171504 | 16 | 166 | 3.2 | 6.4 | 0.00 | 0.00 | 7.16 | 48 | 1013.6 |
| 20260507171004 | 17 | 186 | 3.2 | 6.4 | 0.00 | 0.00 | 7.16 | 46 | 1013.6 |
| 20260507170504 | 17 | 189 | 3.2 | 6.4 | 0.00 | 0.00 | 7.16 | 42 | 1013.5 |
| 20260507170005 | 17 | 170 | 0.0 | 6.4 | 0.00 | 0.00 | 7.16 | 45 | 1013.6 |
| 20260507165504 | 17 | 160 | 4.8 | 6.4 | 0.00 | 0.00 | 7.16 | 45 | 1013.4 |
| 20260507165004 | 17 | 157 | 4.8 | 6.4 | 0.00 | 0.00 | 7.16 | 44 | 1013.5 |
| 20260507164504 | 17 | 157 | 6.4 | 6.4 | 0.00 | 0.00 | 7.16 | 46 | 1013.6 |
| 20260507164004 | 17 | 165 | 4.8 | 8.0 | 0.00 | 0.00 | 7.16 | 47 | 1013.3 |
| 20260507163504 | 16 | 173 | 3.2 | 8.0 | 0.00 | 0.00 | 7.16 | 43 | 1013.4 |
| 20260507163004 | 16 | 176 | 3.2 | 6.4 | 0.00 | 0.00 | 7.16 | 46 | 1013.6 |
| 20260507162504 | 16 | 173 | 3.2 | 6.4 | 0.00 | 0.00 | 7.16 | 45 | 1013.4 |
| 20260507162215 | 16 | 182 | 3.2 | 6.4 | 0.00 | 0.00 | 7.16 | 46 | 1013.4 |
| 20260507161718 | 17 | 193 | 3.2 | 6.4 | 0.00 | 0.00 | 7.16 | 50 | 1013.5 |
| 20260507161004 | 17 | 202 | 4.8 | 8.0 | 0.00 | 0.00 | 7.16 | 49 | 1013.5 |
| 20260507160504 | 17 | 203 | 6.4 | 8.0 | 0.00 | 0.00 | 7.16 | 44 | 1013.2 |
| 20260507160004 | 17 | 193 | 6.4 | 8.0 | 0.00 | 0.00 | 7.16 | 44 | 1013.4 |
| 20260507155504 | 17 | 182 | 4.8 | 6.4 | 0.00 | 0.00 | 7.16 | 45 | 1013.3 |
| 20260507155213 | 17 | 182 | 3.2 | 8.0 | 0.00 | 0.00 | 7.16 | 50 | 1013.2 |
| 20260507154504 | 17 | 156 | 4.8 | 8.0 | 0.00 | 0.00 | 7.16 | 46 | 1013.3 |
| 20260507154004 | 17 | 173 | 4.8 | 6.4 | 0.00 | 0.00 | 7.16 | 45 | 1013.3 |
| 20260507153504 | 17 | 190 | 4.8 | 12.9 | 0.00 | 0.00 | 7.16 | 44 | 1013.3 |
| 20260507153004 | 17 | 188 | 4.8 | 12.9 | 0.00 | 0.00 | 7.16 | 43 | 1013.4 |
| 20260507152504 | 17 | 187 | 4.8 | 8.0 | 0.00 | 0.00 | 7.16 | 43 | 1013.3 |
| 20260507152003 | 17 | 200 | 3.2 | 8.0 | 0.00 | 0.00 | 7.16 | 44 | 1013.3 |
| 20260507151504 | 17 | 187 | 4.8 | 8.0 | 0.00 | 0.00 | 7.16 | 44 | 1013.3 |
| 20260507151217 | 17 | 181 | 3.2 | 8.0 | 0.00 | 0.00 | 7.16 | 45 | 1013.5 |
| 20260507150503 | 17 | 182 | 4.8 | 12.9 | 0.00 | 0.00 | 7.16 | 44 | 1013.6 |
| 20260507150213 | 17 | 164 | 4.8 | 12.9 | 0.00 | 0.00 | 7.16 | 48 | 1013.6 |
| 20260507145716 | 17 | 140 | 4.8 | 11.3 | 0.00 | 0.00 | 7.16 | 50 | 1013.3 |
| 20260507145003 | 16 | 192 | 3.2 | 9.7 | 0.00 | 0.00 | 7.16 | 48 | 1013.5 |
| 20260507144503 | 16 | 163 | 3.2 | 9.7 | 0.00 | 0.00 | 7.16 | 50 | 1013.6 |
| 20260507144214 | 16 | 161 | 6.4 | 11.3 | 0.00 | 0.00 | 7.16 | 47 | 1013.5 |
| 20260507143504 | 16 | 170 | 4.8 | 11.3 | 0.00 | 0.00 | 7.16 | 47 | 1013.5 |
| 20260507143004 | 16 | 183 | 6.4 | 11.3 | 0.00 | 0.00 | 7.16 | 50 | 1013.7 |
| 20260507142504 | 16 | 197 | 4.8 | 6.4 | 0.00 | 0.00 | 7.16 | 52 | 1013.5 |
| 20260507142004 | 15 | 198 | 3.2 | 6.4 | 0.00 | 0.00 | 7.16 | 52 | 1013.6 |
| 20260507141504 | 15 | 181 | 4.8 | 9.7 | 0.00 | 0.00 | 7.16 | 54 | 1013.8 |
| 20260507141004 | 15 | 173 | 3.2 | 9.7 | 0.00 | 0.00 | 7.16 | 53 | 1013.7 |
| 20260507140504 | 15 | 170 | 3.2 | 6.4 | 0.00 | 0.00 | 7.16 | 52 | 1013.8 |
| 20260507140004 | 15 | 166 | 3.2 | 6.4 | 0.00 | 0.00 | 7.16 | 52 | 1013.7 |
| 20260507135716 | 15 | 162 | 3.2 | 6.4 | 0.00 | 0.00 | 7.16 | 50 | 1013.7 |
| 20260507135004 | 16 | 184 | 4.8 | 9.7 | 0.00 | 0.00 | 7.16 | 51 | 1013.7 |
| 20260507134504 | 17 | 181 | 6.4 | 9.7 | 0.00 | 0.00 | 7.16 | 48 | 1013.8 |
| 20260507134004 | 16 | 174 | 6.4 | 9.7 | 0.00 | 0.00 | 7.16 | 50 | 1013.8 |
| 20260507133504 | 17 | 173 | 4.8 | 9.7 | 0.00 | 0.00 | 7.16 | 51 | 1014.0 |
| 20260507133004 | 17 | 174 | 4.8 | 9.7 | 0.00 | 0.00 | 7.16 | 52 | 1013.8 |
| 20260507132504 | 16 | 170 | 6.4 | 9.7 | 0.00 | 0.00 | 7.16 | 51 | 1013.9 |
| 20260507132217 | 16 | 170 | 4.8 | 9.7 | 0.00 | 0.00 | 7.16 | 52 | 1014.0 |
| 20260507131503 | 17 | 158 | 6.4 | 11.3 | 0.00 | 0.00 | 7.16 | 52 | 1014.0 |
| 20260507131004 | 16 | 160 | 4.8 | 11.3 | 0.00 | 0.00 | 7.16 | 52 | 1014.0 |
| 20260507130504 | 16 | 174 | 4.8 | 9.7 | 0.00 | 0.00 | 7.16 | 54 | 1014.3 |
| 20260507130004 | 16 | 169 | 6.4 | 9.7 | 0.00 | 0.00 | 7.16 | 54 | 1014.2 |
| 20260507125503 | 15 | 143 | 3.2 | 9.7 | 0.00 | 0.00 | 7.16 | 59 | 1014.1 |
| 20260507125004 | 14 | 108 | 4.8 | 9.7 | 0.00 | 0.00 | 7.16 | 61 | 1014.1 |
| 20260507124503 | 13 | 90 | 6.4 | 6.4 | 0.00 | 0.00 | 7.16 | 59 | 1014.0 |
| 20260507124003 | 15 | 135 | 4.8 | 6.4 | 0.00 | 0.00 | 7.16 | 60 | 1014.2 |
| 20260507123714 | 15 | 135 | 4.8 | 6.4 | 0.00 | 0.00 | 7.16 | 60 | 1014.3 |
| 20260507123003 | 15 | 135 | 4.8 | 6.4 | 0.00 | 0.00 | 7.16 | 60 | 1014.2 |
| 20260507122503 | 15 | 135 | 4.8 | 6.4 | 0.00 | 0.00 | 7.16 | 60 | 1014.3 |
| 20260507122004 | 15 | 135 | 4.8 | 6.4 | 0.00 | 0.00 | 7.16 | 60 | 1014.3 |
| 20260507121503 | 15 | 135 | 4.8 | 6.4 | 0.00 | 0.00 | 7.16 | 60 | 1014.2 |
| 20260507121003 | 15 | 135 | 4.8 | 6.4 | 0.00 | 0.00 | 7.16 | 60 | 1014.0 |
| 20260507120503 | 15 | 135 | 4.8 | 6.4 | 0.00 | 0.00 | 7.16 | 60 | 1014.4 |
| 20260507120005 | 15 | 135 | 4.8 | 6.4 | 0.00 | 0.00 | 7.16 | 60 | 1014.4 |
| 20260507115504 | 15 | 135 | 4.8 | 6.4 | 0.00 | 0.00 | 7.16 | 60 | 1014.2 |
| 20260507115004 | 15 | 135 | 4.8 | 6.4 | 0.00 | 0.00 | 7.16 | 60 | 1014.4 |
| 20260507114504 | 15 | 113 | 4.8 | 9.7 | 0.00 | 0.00 | 7.16 | 60 | 1014.1 |
| 20260507114004 | 15 | 90 | 6.4 | 9.7 | 0.00 | 0.00 | 7.16 | 60 | 1014.1 |
| 20260507113504 | 15 | 98 | 6.4 | 9.7 | 0.00 | 0.00 | 7.16 | 60 | 1014.3 |
| 20260507113004 | 15 | 137 | 6.4 | 9.7 | 0.00 | 0.00 | 7.16 | 60 | 1014.3 |
| 20260507112504 | 15 | 156 | 4.8 | 6.4 | 0.00 | 0.00 | 7.16 | 60 | 1014.3 |
| 20260507112004 | 15 | 135 | 4.8 | 6.4 | 0.00 | 0.00 | 7.16 | 57 | 1014.6 |
| 20260507111506 | 15 | 138 | 4.8 | 8.0 | 0.00 | 0.00 | 7.16 | 57 | 1014.5 |
| 20260507111214 | 15 | 153 | 4.8 | 12.9 | 0.00 | 0.00 | 7.16 | 57 | 1014.5 |
| 20260507110504 | 15 | 176 | 6.4 | 12.9 | 0.00 | 0.00 | 7.16 | 59 | 1014.7 |
| 20260507110004 | 15 | 161 | 6.4 | 12.9 | 0.00 | 0.00 | 7.16 | 59 | 1014.4 |
| 20260507105504 | 15 | 135 | 4.8 | 6.4 | 0.00 | 0.00 | 7.16 | 61 | 1014.4 |
| 20260507105216 | 15 | 135 | 4.8 | 6.4 | 0.00 | 0.00 | 7.16 | 61 | 1014.4 |
| 20260507104504 | 13 | 225 | 3.2 | 6.4 | 0.00 | 0.00 | 7.16 | 63 | 1014.5 |
| 20260507104217 | 13 | 225 | 3.2 | 6.4 | 0.00 | 0.00 | 7.16 | 63 | 1014.5 |
| 20260507103504 | 13 | 225 | 3.2 | 6.4 | 0.00 | 0.00 | 7.16 | 63 | 1014.7 |
| 20260507103218 | 13 | 225 | 3.2 | 6.4 | 0.00 | 0.00 | 7.16 | 63 | 1014.6 |
| 20260507102504 | 13 | 200 | 3.2 | 6.4 | 0.00 | 0.00 | 7.16 | 63 | 1014.6 |
| 20260507102004 | 13 | 110 | 4.8 | 6.4 | 0.00 | 0.00 | 7.16 | 62 | 1014.8 |
| 20260507101504 | 13 | 145 | 1.6 | 4.8 | 0.00 | 0.00 | 7.16 | 63 | 1014.7 |
| 20260507101215 | 13 | 168 | 1.6 | 4.8 | 0.00 | 0.00 | 7.16 | 63 | 1014.7 |
| 20260507100503 | 12 | 169 | 3.2 | 6.4 | 0.00 | 0.00 | 7.16 | 62 | 1014.7 |
| 20260507100216 | 12 | 162 | 3.2 | 6.4 | 0.00 | 0.00 | 7.16 | 62 | 1014.8 |
| 20260507095504 | 12 | 171 | 4.8 | 6.4 | 0.00 | 0.00 | 7.16 | 62 | 1014.7 |
| 20260507095004 | 12 | 136 | 3.2 | 8.0 | 0.00 | 0.00 | 7.16 | 64 | 1014.7 |
| 20260507094504 | 12 | 128 | 4.8 | 8.0 | 0.00 | 0.00 | 7.16 | 69 | 1014.7 |
| 20260507094213 | 12 | 125 | 3.2 | 6.4 | 0.00 | 0.00 | 7.16 | 70 | 1014.5 |
| 20260507093504 | 11 | 111 | 1.6 | 6.4 | 0.00 | 0.00 | 7.16 | 71 | 1014.5 |
| 20260507093213 | 10 | 100 | 3.2 | 6.4 | 0.00 | 0.00 | 7.16 | 71 | 1014.4 |
| 20260507092504 | 10 | 116 | 3.2 | 9.7 | 0.00 | 0.00 | 7.16 | 72 | 1014.6 |
| 20260507092003 | 10 | 307 | 1.6 | 9.7 | 7.16 | 7.26 | 7.16 | 71 | 1014.3 |
| 20260507091503 | 6 | 315 | 8.0 | 9.7 | 0.00 | 1.02 | 0.00 | 98 | 1011.2 |
| 20260507091004 | 6 | 315 | 8.0 | 9.7 | 0.00 | 1.02 | 0.00 | 98 | 1011.3 |
| 20260507090504 | 6 | 315 | 8.0 | 9.7 | 0.00 | 1.04 | 0.00 | 98 | 1011.3 |
| 20260507090005 | 6 | 315 | 8.0 | 9.7 | 0.00 | 1.04 | 0.00 | 98 | 1011.3 |
| 20260507085504 | 6 | 315 | 8.0 | 9.7 | 0.00 | 1.04 | 0.00 | 98 | 1011.3 |
| 20260507085004 | 6 | 315 | 8.0 | 9.7 | 0.00 | 1.04 | 0.00 | 98 | 1011.3 |
| 20260507084504 | 6 | 315 | 8.0 | 9.7 | 0.00 | 1.04 | 0.00 | 98 | 1011.2 |
| 20260507084217 | 6 | 315 | 8.0 | 9.7 | 0.00 | 1.04 | 0.00 | 98 | 1011.1 |
| 20260507083504 | 6 | 315 | 8.0 | 9.7 | 0.00 | 1.04 | 0.00 | 98 | 1010.9 |
| 20260507083004 | 6 | 315 | 8.0 | 9.7 | 0.00 | 1.04 | 0.00 | 98 | 1011.2 |
| 20260507082716 | 6 | 315 | 8.0 | 9.7 | 0.00 | 1.04 | 0.00 | 98 | 1011.0 |
| 20260507082004 | 6 | 315 | 8.0 | 9.7 | 0.00 | 1.04 | 0.00 | 98 | 1010.7 |
| 20260507081504 | 6 | 315 | 8.0 | 9.7 | 0.00 | 1.04 | 0.00 | 98 | 1010.8 |
| 20260507081004 | 6 | 315 | 8.0 | 9.7 | 0.00 | 1.04 | 0.00 | 98 | 1010.8 |
| 20260507080504 | 6 | 315 | 8.0 | 9.7 | 0.00 | 1.04 | 0.00 | 98 | 1010.7 |
| 20260507080004 | 6 | 315 | 8.0 | 9.7 | 0.00 | 1.04 | 0.00 | 98 | 1011.0 |
| 20260507075504 | 6 | 315 | 8.0 | 9.7 | 0.00 | 1.04 | 0.00 | 98 | 1010.9 |
| 20260507075004 | 6 | 315 | 8.0 | 9.7 | 0.00 | 1.04 | 0.00 | 98 | 1010.8 |
| 20260507074504 | 6 | 315 | 8.0 | 9.7 | 0.00 | 1.04 | 0.00 | 98 | 1010.9 |
| 20260507074004 | 6 | 315 | 8.0 | 9.7 | 0.00 | 1.04 | 0.00 | 98 | 1010.8 |
| 20260507073503 | 6 | 315 | 8.0 | 9.7 | 0.00 | 1.04 | 0.00 | 98 | 1010.9 |
| 20260507073004 | 6 | 315 | 8.0 | 9.7 | 0.00 | 1.04 | 0.00 | 98 | 1010.9 |
| 20260507072716 | 6 | 315 | 8.0 | 9.7 | 0.00 | 1.04 | 0.00 | 98 | 1010.8 |
| 20260507072003 | 6 | 315 | 8.0 | 9.7 | 0.00 | 1.04 | 0.00 | 98 | 1010.8 |
| 20260507071504 | 6 | 315 | 8.0 | 9.7 | 0.00 | 1.04 | 0.00 | 98 | 1010.6 |
| 20260507071003 | 6 | 315 | 8.0 | 9.7 | 0.00 | 1.04 | 0.00 | 98 | 1010.7 |
| 20260507070713 | 6 | 315 | 8.0 | 9.7 | 0.00 | 1.04 | 0.00 | 98 | 1010.7 |
| 20260507070007 | 6 | 315 | 8.0 | 9.7 | 0.00 | 1.04 | 0.00 | 98 | 1010.5 |
| 20260507065714 | 6 | 315 | 8.0 | 9.7 | 0.00 | 1.04 | 0.00 | 98 | 1010.8 |
| 20260507065003 | 6 | 315 | 8.0 | 9.7 | 0.00 | 1.04 | 0.00 | 98 | 1010.6 |
| 20260507064503 | 6 | 315 | 8.0 | 9.7 | 0.00 | 1.04 | 0.00 | 98 | 1010.6 |
| 20260507064003 | 6 | 315 | 8.0 | 9.7 | 0.00 | 1.04 | 0.00 | 98 | 1010.5 |
| 20260507063504 | 6 | 315 | 8.0 | 9.7 | 0.00 | 1.09 | 0.00 | 98 | 1010.6 |
| 20260507063214 | 6 | 315 | 8.0 | 9.7 | 0.00 | 1.09 | 0.00 | 98 | 1010.6 |
| 20260507062503 | 6 | 315 | 8.0 | 9.7 | 0.00 | 1.12 | 0.00 | 98 | 1010.6 |
| 20260507062003 | 6 | 315 | 8.0 | 9.7 | 0.00 | 1.12 | 0.00 | 98 | 1010.4 |
| 20260507061503 | 6 | 315 | 8.0 | 9.7 | 0.00 | 1.12 | 0.00 | 98 | 1010.3 |
| 20260507061003 | 6 | 315 | 8.0 | 9.7 | 0.00 | 1.14 | 0.00 | 98 | 1010.4 |
| 20260507060503 | 6 | 315 | 8.0 | 9.7 | 0.00 | 1.17 | 0.00 | 98 | 1010.4 |
| 20260507060217 | 6 | 315 | 8.0 | 9.7 | 0.00 | 1.17 | 0.00 | 98 | 1010.4 |
| 20260507055504 | 6 | 315 | 8.0 | 9.7 | 0.00 | 1.17 | 0.00 | 98 | 1010.4 |
| 20260507055218 | 6 | 315 | 8.0 | 9.7 | 0.00 | 1.19 | 0.00 | 98 | 1010.3 |
| 20260507054504 | 6 | 315 | 8.0 | 9.7 | 0.00 | 1.19 | 0.00 | 98 | 1010.2 |
| 20260507054004 | 6 | 315 | 8.0 | 9.7 | 0.00 | 1.22 | 0.00 | 98 | 1010.2 |
| 20260507053717 | 6 | 315 | 8.0 | 9.7 | 0.00 | 1.22 | 0.00 | 98 | 1010.1 |
| 20260507053004 | 6 | 315 | 8.0 | 9.7 | 0.00 | 1.22 | 0.00 | 98 | 1009.9 |
| 20260507052504 | 6 | 315 | 8.0 | 9.7 | 0.00 | 1.27 | 0.00 | 98 | 1010.0 |
| 20260507052216 | 6 | 315 | 8.0 | 9.7 | 0.00 | 1.30 | 0.00 | 98 | 1009.9 |
| 20260507051504 | 6 | 315 | 8.0 | 9.7 | 0.00 | 1.30 | 0.00 | 98 | 1009.9 |
| 20260507051004 | 6 | 315 | 8.0 | 9.7 | 0.00 | 1.32 | 0.00 | 98 | 1010.0 |
| 20260507050714 | 6 | 315 | 8.0 | 9.7 | 0.00 | 1.35 | 0.00 | 98 | 1009.8 |
| 20260507050005 | 6 | 315 | 8.0 | 9.7 | 0.00 | 1.35 | 0.00 | 98 | 1009.8 |
| 20260507045504 | 6 | 315 | 8.0 | 9.7 | 0.00 | 1.35 | 0.00 | 98 | 1009.7 |
| 20260507045003 | 6 | 315 | 8.0 | 9.7 | 0.00 | 1.35 | 0.00 | 98 | 1009.6 |
| 20260507044716 | 6 | 315 | 8.0 | 9.7 | 0.00 | 1.35 | 0.00 | 98 | 1009.7 |
| 20260507044004 | 6 | 315 | 8.0 | 9.7 | 0.00 | 1.35 | 0.00 | 98 | 1009.5 |
| 20260507043504 | 6 | 315 | 8.0 | 9.7 | 0.00 | 1.35 | 0.00 | 98 | 1009.6 |
| 20260507043003 | 6 | 315 | 8.0 | 9.7 | 0.00 | 1.35 | 0.00 | 98 | 1009.7 |
| 20260507042503 | 6 | 315 | 8.0 | 9.7 | 0.00 | 1.35 | 0.00 | 98 | 1009.6 |
| 20260507042003 | 6 | 315 | 8.0 | 9.7 | 0.00 | 1.35 | 0.00 | 98 | 1009.3 |
| 20260507041503 | 6 | 315 | 8.0 | 9.7 | 0.00 | 1.35 | 0.00 | 98 | 1009.4 |
| 20260507041003 | 6 | 315 | 8.0 | 9.7 | 0.00 | 1.35 | 0.00 | 98 | 1009.6 |
| 20260507040503 | 6 | 315 | 8.0 | 9.7 | 0.00 | 1.37 | 0.00 | 98 | 1009.4 |
| 20260507040004 | 6 | 315 | 8.0 | 9.7 | 0.00 | 1.37 | 0.00 | 98 | 1009.6 |
| 20260507035503 | 6 | 315 | 8.0 | 9.7 | 0.00 | 1.37 | 0.00 | 98 | 1009.4 |
| 20260507035003 | 6 | 315 | 8.0 | 9.7 | 0.00 | 1.42 | 0.00 | 98 | 1009.4 |
| 20260507034503 | 6 | 315 | 8.0 | 9.7 | 0.00 | 1.42 | 0.00 | 98 | 1009.4 |
| 20260507034003 | 6 | 315 | 8.0 | 9.7 | 0.00 | 1.42 | 0.00 | 98 | 1009.5 |
| 20260507033503 | 6 | 315 | 8.0 | 9.7 | 0.00 | 1.42 | 0.00 | 98 | 1009.4 |
| 20260507033003 | 6 | 315 | 8.0 | 9.7 | 0.00 | 1.45 | 0.00 | 98 | 1009.5 |
| 20260507032503 | 6 | 315 | 8.0 | 9.7 | 0.00 | 1.47 | 0.00 | 98 | 1009.5 |
| 20260507032217 | 6 | 315 | 8.0 | 9.7 | 0.00 | 1.47 | 0.00 | 98 | 1009.4 |
| 20260507031503 | 6 | 315 | 8.0 | 9.7 | 0.00 | 1.47 | 0.00 | 98 | 1009.6 |
| 20260507031003 | 6 | 315 | 8.0 | 9.7 | 0.00 | 1.47 | 0.00 | 98 | 1009.5 |
| 20260507030716 | 6 | 315 | 8.0 | 9.7 | 0.00 | 1.47 | 0.00 | 98 | 1009.3 |
| 20260507030003 | 6 | 315 | 8.0 | 9.7 | 0.00 | 1.47 | 0.00 | 98 | 1009.3 |
| 20260507025504 | 6 | 315 | 8.0 | 9.7 | 0.00 | 1.47 | 0.00 | 98 | 1009.3 |
| 20260507025215 | 6 | 315 | 8.0 | 9.7 | 0.00 | 1.47 | 0.00 | 98 | 1009.5 |
| 20260507024504 | 6 | 315 | 8.0 | 9.7 | 0.00 | 1.47 | 0.00 | 98 | 1009.4 |
| 20260507024004 | 6 | 315 | 8.0 | 9.7 | 0.00 | 1.47 | 0.00 | 98 | 1009.2 |
| 20260507023504 | 6 | 315 | 8.0 | 9.7 | 0.00 | 1.47 | 0.00 | 98 | 1009.4 |
| 20260507023004 | 6 | 315 | 8.0 | 9.7 | 0.00 | 1.47 | 0.00 | 98 | 1009.4 |
| 20260507022504 | 6 | 315 | 8.0 | 9.7 | 0.00 | 1.50 | 0.00 | 98 | 1009.4 |
| 20260507022004 | 6 | 315 | 8.0 | 9.7 | 0.00 | 1.50 | 0.00 | 98 | 1009.4 |
| 20260507021504 | 6 | 315 | 8.0 | 9.7 | 0.00 | 1.50 | 0.00 | 98 | 1009.6 |
| 20260507021004 | 6 | 315 | 8.0 | 9.7 | 0.00 | 1.50 | 0.00 | 98 | 1009.3 |
| 20260507020717 | 6 | 315 | 8.0 | 9.7 | 0.00 | 1.50 | 0.00 | 98 | 1009.3 |
| 20260507020004 | 6 | 315 | 8.0 | 9.7 | 0.00 | 1.50 | 0.00 | 98 | 1009.6 |
| 20260507015504 | 6 | 315 | 8.0 | 9.7 | 0.00 | 1.52 | 0.00 | 98 | 1009.4 |
| 20260507015004 | 6 | 315 | 8.0 | 9.7 | 0.00 | 1.52 | 0.00 | 98 | 1009.4 |
| 20260507014504 | 6 | 315 | 8.0 | 9.7 | 0.00 | 1.55 | 0.00 | 98 | 1009.3 |
| 20260507014216 | 6 | 315 | 8.0 | 9.7 | 0.00 | 1.55 | 0.00 | 98 | 1009.2 |
| 20260507013503 | 6 | 315 | 8.0 | 9.7 | 0.00 | 1.60 | 0.00 | 98 | 1009.3 |
| 20260507013004 | 6 | 315 | 8.0 | 9.7 | 0.00 | 1.60 | 0.00 | 98 | 1009.1 |
| 20260507012503 | 6 | 315 | 8.0 | 9.7 | 0.00 | 1.60 | 0.00 | 98 | 1009.1 |
| 20260507012213 | 6 | 315 | 8.0 | 9.7 | 0.00 | 1.60 | 0.00 | 98 | 1009.1 |
| 20260507011503 | 6 | 315 | 8.0 | 9.7 | 0.00 | 1.60 | 0.00 | 98 | 1009.1 |
| 20260507011004 | 6 | 315 | 8.0 | 9.7 | 0.00 | 1.60 | 0.00 | 98 | 1008.9 |
| 20260507010503 | 6 | 315 | 8.0 | 9.7 | 0.00 | 1.60 | 0.00 | 98 | 1009.0 |
| 20260507010004 | 6 | 315 | 8.0 | 9.7 | 0.00 | 1.63 | 0.00 | 98 | 1009.0 |
| 20260507005503 | 6 | 315 | 8.0 | 9.7 | 0.00 | 1.63 | 0.00 | 98 | 1009.1 |
| 20260507005004 | 6 | 315 | 8.0 | 9.7 | 0.00 | 1.63 | 0.00 | 98 | 1009.1 |
| 20260507004504 | 6 | 315 | 8.0 | 9.7 | 0.00 | 1.65 | 0.00 | 98 | 1009.0 |
| 20260507004003 | 6 | 315 | 8.0 | 9.7 | 0.00 | 1.65 | 0.00 | 98 | 1009.1 |
| 20260507003503 | 6 | 315 | 8.0 | 9.7 | 0.00 | 1.65 | 0.00 | 98 | 1009.0 |
| 20260507003003 | 6 | 315 | 8.0 | 9.7 | 0.00 | 1.65 | 0.00 | 98 | 1009.1 |
| 20260507002716 | 6 | 315 | 8.0 | 9.7 | 0.00 | 1.65 | 0.00 | 98 | 1009.3 |
| 20260507002004 | 6 | 315 | 8.0 | 9.7 | 0.00 | 1.65 | 0.00 | 98 | 1009.1 |
| 20260507001503 | 6 | 315 | 8.0 | 9.7 | 0.00 | 1.68 | 0.00 | 98 | 1009.2 |
| 20260507001003 | 6 | 315 | 8.0 | 9.7 | 0.00 | 1.68 | 0.00 | 98 | 1009.0 |
| 20260507000712 | 6 | 315 | 8.0 | 9.7 | 0.00 | 1.68 | 0.00 | 98 | 1009.2 |
| 20260507000003 | 6 | 315 | 8.0 | 9.7 | 0.00 | 1.68 | 0.00 | 98 | 1009.1 |
| 20260506235503 | 6 | 315 | 8.0 | 9.7 | 0.00 | 1.68 | 0.00 | 98 | 1009.1 |
| 20260506235003 | 6 | 315 | 8.0 | 9.7 | 0.00 | 1.68 | 0.00 | 98 | 1009.1 |
| 20260506234715 | 6 | 315 | 8.0 | 9.7 | 0.00 | 1.68 | 0.00 | 98 | 1009.0 |
| 20260506234004 | 6 | 315 | 8.0 | 9.7 | 0.00 | 1.68 | 0.00 | 98 | 1009.1 |
| 20260506233504 | 6 | 315 | 8.0 | 9.7 | 0.00 | 1.68 | 0.00 | 98 | 1009.2 |
| 20260506233004 | 6 | 315 | 8.0 | 9.7 | 0.00 | 1.68 | 0.00 | 98 | 1009.1 |
| 20260506232716 | 6 | 315 | 8.0 | 9.7 | 0.00 | 1.68 | 0.00 | 98 | 1009.3 |
| 20260506232004 | 6 | 315 | 8.0 | 9.7 | 0.00 | 1.68 | 0.00 | 98 | 1009.2 |
| 20260506231504 | 6 | 315 | 8.0 | 9.7 | 0.00 | 1.68 | 0.00 | 98 | 1009.2 |
| 20260506231004 | 6 | 315 | 8.0 | 9.7 | 0.00 | 1.70 | 0.00 | 98 | 1009.2 |
| 20260506230713 | 6 | 315 | 8.0 | 9.7 | 0.00 | 1.70 | 0.00 | 98 | 1009.3 |
| 20260506230004 | 6 | 315 | 8.0 | 9.7 | 0.00 | 1.70 | 0.00 | 98 | 1009.1 |
| 20260506225504 | 6 | 315 | 8.0 | 9.7 | 0.00 | 1.75 | 0.00 | 98 | 1009.1 |
| 20260506225004 | 6 | 315 | 8.0 | 9.7 | 0.00 | 1.75 | 0.00 | 98 | 1009.1 |
| 20260506224504 | 6 | 315 | 8.0 | 9.7 | 0.00 | 1.75 | 0.00 | 98 | 1009.1 |
| 20260506224004 | 6 | 315 | 8.0 | 9.7 | 0.00 | 1.78 | 0.00 | 98 | 1008.9 |
| 20260506223504 | 6 | 315 | 8.0 | 9.7 | 0.00 | 1.78 | 0.00 | 98 | 1009.0 |
| 20260506223004 | 6 | 315 | 8.0 | 9.7 | 0.00 | 1.78 | 0.00 | 98 | 1008.8 |
| 20260506222504 | 6 | 315 | 8.0 | 9.7 | 0.00 | 1.78 | 0.00 | 98 | 1008.8 |
| 20260506222215 | 6 | 315 | 8.0 | 9.7 | 0.00 | 1.78 | 0.00 | 98 | 1008.9 |
| 20260506221504 | 6 | 315 | 8.0 | 9.7 | 0.00 | 1.80 | 0.00 | 98 | 1008.8 |
| 20260506221003 | 6 | 315 | 8.0 | 9.7 | 0.00 | 1.80 | 0.00 | 98 | 1008.9 |
| 20260506220503 | 6 | 315 | 8.0 | 9.7 | 0.00 | 1.85 | 0.00 | 98 | 1008.8 |
| 20260506220004 | 6 | 315 | 8.0 | 9.7 | 0.00 | 1.85 | 0.00 | 98 | 1009.0 |
| 20260506215503 | 6 | 315 | 8.0 | 9.7 | 0.00 | 1.85 | 1.85 | 98 | 1009.0 |
| 20260506215213 | 6 | 315 | 8.0 | 9.7 | 0.00 | 1.88 | 1.85 | 98 | 1009.0 |
| 20260506214503 | 6 | 315 | 8.0 | 9.7 | 0.00 | 1.88 | 1.85 | 98 | 1009.1 |